Hourly Data Report for February 14, 2006

TORONTO CITY
ONTARIO

43°40'00.000" N
79°24'00.000" W
112.50 m
6158355
71508
XTO

Download Data

Hourly Data (February 2006)
Hourly Data Report for February 14, 2006
TIME
LST
Temp Definition
°C
Dew Point Definition
°C
Rel Hum Definition
%
Precip. Amount Definition
mm

Wind Dir Definition
10's deg

Wind Spd Definition
km/h
Visibility Definition
km
Stn Press Definition
kPa
Hmdx Definition


Wind Chill Definition


Weather Definition


00:00 -2.4 -6.6 73   LegendMM LegendMM   99.40     LegendNANA
01:00 -2.7 -6.5 75   LegendMM LegendMM   99.44     LegendNANA
02:00 -2.9 -6.2 78   LegendMM LegendMM   99.49     LegendNANA
03:00 -2.7 -5.7 80   LegendMM LegendMM   99.50     LegendNANA
04:00 -2.1 -5.3 79   LegendMM LegendMM   99.51     LegendNANA
05:00 -1.9 -5.2 78   LegendMM LegendMM   99.59     LegendNANA
06:00 -1.7 -5.0 78   LegendMM LegendMM   99.61     LegendNANA
07:00 -1.5 -4.7 79   LegendMM LegendMM   99.66     LegendNANA
08:00 -1.3 -4.4 79   LegendMM LegendMM   99.74     LegendNANA
09:00 -1.1 -3.8 82   LegendMM LegendMM   99.78     LegendNANA
10:00 -0.8 -3.0 85   LegendMM LegendMM   99.77     LegendNANA
11:00 0.2 -2.3 83   LegendMM LegendMM   99.74     LegendNANA
12:00 1.3 -1.8 80   LegendMM LegendMM   99.71     LegendNANA
13:00 1.9 -1.3 79   LegendMM LegendMM   99.64     LegendNANA
14:00 2.2 -1.7 75   LegendMM LegendMM   99.59     LegendNANA
15:00 2.4 -1.5 75   LegendMM LegendMM   99.63     LegendNANA
16:00 2.6 -1.7 73   LegendMM LegendMM   99.71     LegendNANA
17:00 2.6 -1.3 75   LegendMM LegendMM   99.72     LegendNANA
18:00 2.2 -1.2 78   LegendMM LegendMM   99.76     LegendNANA
19:00 2.2 -1.2 78   LegendMM LegendMM   99.78     LegendNANA
20:00 2.4 -0.9 79   LegendMM LegendMM   99.79     LegendNANA
21:00 2.6 -0.9 78   LegendMM LegendMM   99.78     LegendNANA
22:00 2.8 -0.7 78   LegendMM LegendMM   99.76     LegendNANA
23:00 3.2 -0.5 77   LegendMM LegendMM   99.79     LegendNANA

Notes on Data Quality.

Legend

  • E = Estimated
  • M = Missing
  • NA = Not Available*
  • [empty] = Indicates an unobserved value
Date modified: